690  
SXUS52 KCHS 140812  
OSOCHS  
 
MARINE OBSERVATIONS  
NATIONAL WEATHER SERVICE CHARLESTON SC  
400 AM EDT FRI AUG 14 2020  
   
..DOWNTOWN CHARLESTON AND HARBOR
 
 
 
CITY SKY/WX TMP DP RH WIND PRES REMARKS  
WATERFRONT PRK N/A 80 77 90 S6 29.81S  
   
..LAKE MOULTRIE
 
 
 
CITY SKY/WX TMP DP RH WIND PRES REMARKS  
PINOPOLIS N/A 73 73 100 CALM 29.91R  
   
..LAKE AND SUPPLEMENTAL COASTAL OBSERVATIONS
 
 
 
STATION/POSITION TIME TEMP WIND PRES WAVE SWELL  
AIR SEA DIR/SP/G HT/PER HT/PER/DIR  
(UTC) (F) (DEG/KT/KT) (MB) (FT/S) (FT/S/D)  
CHRLSTN HARBOR 0730 81 180/ 5/ 6 1014.9F  
FORT PULASKI 0730 80 250/ 4/ 6 1015.3R  
SAPELO ISLAND 0700 77 210/ 8 1015.0  
WINYAH BAY 0645 75 240/ 1 1014.0  
LAKE MURRAY 0720 74 330/ 1/ 5 N/A  
ACE BASIN NERRS 0645 76 CALM 1015.0  
 
   
..C-MAN AND BUOY OBSERVATIONS
 
 
 
STATION/POSITION TIME TEMP WIND PRES WAVE SWELL  
AIR SEA DIR/SP/G HT/PER HT/PER/DIR  
(UTC) (F) (DEG/KT/KT) (MB) (FT/S) (FT/S/D)  
BUOY 41004 0750 230/ 8/ 8 1014.9S 2/ 5 2/200/ 5  
BUOY 41008 0750 84 85 230/ 16/ 17 1014.5R 2/ 4  
FOLLY BEACH CMAN 0800 82 190/ 10/ 11 1014.9F  
PRITCHARDS ISLAN NOT AVBL  
CAPERS NS BUOY 0708 82 85 200/ 10/ 14 1014.8R  
FRIPP NS BUOY 0708 84 85 240/ 16/ 19 1014.1F  
5E ST. MARYS GA 0730 82 85 N/A 2/ 3  
 
 
STATION/POSITION TIME TEMP WIND PRES WAVE SWELL  
AIR SEA DIR/SP/G HT/PER HT/PER/DIR  
(UTC) (F) (DEG/KT/KT) (MB) (FT/S) (FT/S/D)  
FRYING PAN BUOY 0750 81 82 260/ 10/ 14 1013.8R 3/ 5 3/210/ 5  
BUOY 41025 0800 80 250/ 17/ 23 N/A  
CAPE LOOKOUT NC 0800 80 260/ 12/ 15 1013.5R  
BUOY 41002 0750 84 210/ 14/ 16 1016.0F 3/ 5 2/130/ 7  
BUOY 41010 0750 84 85 170/ 10/ 12 1016.0F 2/ 9 2/100/ 9  
ST AUGUSTINE FL 0800 78 84 230/ 1/ 2 1016.1S  
 

 
 
 
CLICK HERE TO GO TO PREVIOUS BULLETINS.

The Nexlab SC Page
The Nexlab GA Page Main Text Page